OpenBCM V1.08-5-g2f4a (Linux)

Packet Radio Mailbox

IZ3LSV

[San Dona' di P. JN]

 Login: GUEST





  
LU9DCE > KEPS     28.02.18 17:13l 261 Lines 12929 Bytes #999 (0) @ WW
BID : 33024_LU9DCE
Read: GUEST
Subj: SAT TLE OF 28
Path: IZ3LSV<IR2UBX<EA2RCF<LU9DCE
Sent: 180228/1601Z @:LU9DCE.TOR.BA.ARG.SOAM #:33024 [TORTUGUITAS] FBB7.07
From: LU9DCE@LU9DCE.TOR.BA.ARG.SOAM
To  : KEPS@WW


            __    _  _  ___  ____   ___  ____    ____  ____  ____
           (  )  / )( \/ _ \(    \ / __)(  __)  (  _ \(  _ \/ ___)
           / (_/\) \/ (\__  )) D (( (__  ) _)    ) _ ( ) _ (\___ \
           \____/\____/(___/(____/ \___)(____)  (____/(____/(____/
               ESTACION DE PACKET RADIO - BUENOS AIRES (GF05OM)
                   BOLETINES INFORMATIVOS PROGRAMADOS (BIP)
                    LU9DCE@GMX.COM - RF 147070 @ 1200 BAUD
                           telnet lu9dce.dynu.com
             BBS port 6300 / NODE port 3694 / DXCLUSTER port 9000

+------------------------------------------------------------------------------+
OSCAR 7
1 07530U 74089B   18059.00167226 -.00000046  00000-0 -70451-5 0  9994
2 07530 101.6728  28.0220 0011988 185.1778 223.1843 12.53631376980917
OSCAR 11 (UoSAT 2)
1 14781U 84021B   18058.69497254  .00000087  00000-0  16894-4 0  9991
2 14781  97.6642  99.4955 0009994  83.9757 276.2596 14.82983138828213
OSCAR 19 (LUSAT)
1 20442U 90005G   18058.86062610 -.00000003 +00000-0 +14934-4 0  9996
2 20442 098.6011 358.0820 0012821 110.8676 249.3882 14.32887698468176
KITSAT B
1 22825U 93061C   18059.14003024 -.00000016  00000-0  11546-4 0  9994
2 22825  98.8500  33.3536 0007575 309.8832  50.1682 14.30022798273988
POSAT 1
1 22826U 93061D   18058.90226451  .00000004  00000-0  19153-4 0  9997
2 22826  98.8441  33.1633 0007997 299.1362  60.9019 14.30353833274134
RADIO ROSTO
1 23439U 94085A   18058.72008909 -.00000057 +00000-0 -40863-3 0  9992
2 23439 064.8168 165.8742 0160955 201.6107 274.5270 11.27566597954220
JAS 2
1 24278U 96046B   18059.16164830 -.00000007  00000-0  27842-4 0  9995
2 24278  98.5278 272.8740 0350922  33.9252 328.3804 13.53082013 63495
TECHSAT 1B
1 25397U 98043D   18058.88343521 -.00000024 +00000-0 +83271-5 0  9999
2 25397 098.6397 001.1925 0001398 027.6784 332.4469 14.23640467019955
ISS (ZARYA)
1 25544U 98067A   18058.84634731 +.00002063 +00000-0 +38351-4 0  9993
2 25544 051.6402 203.8023 0003113 134.6433 348.9868 15.54161227101518
PCSAT
1 26931U 01043C   18058.65608565 -.00000050 +00000-0 +12470-4 0  9996
2 26931 067.0516 152.0336 0006066 282.4622 077.5800 14.30495137856814
SAUDISAT 1C
1 27607U 02058C   18058.61203929 +.00000014 +00000-0 +22700-4 0  9991
2 27607 064.5548 064.9581 0052239 354.4027 005.6484 14.75423078816660
CUTE-1
1 27844U 03031E   18059.53673434  .00000061  00000-0  47324-4 0  9991
2 27844  98.6892  69.7841 0009171 331.8268  28.2413 14.22096855760750
CUBESAT XI 4
1 27848U 03031J   18059.53627879  .00000041  00000-0  38679-4 0  9998
2 27848  98.6981  70.1441 0009253 342.5255  17.5602 14.21703047760625
MOZHAYETS 4
1 27939U 03042A   18059.56700528  .00000051  00000-0  17617-4 0  9997
2 27939  97.9716 201.6213 0014080 129.8463 296.6116 14.66660551770894
CUBESAT XI 5
1 28895U 05043F   18058.40768260 +.00000130 +00000-0 +33652-4 0  9996
2 28895 097.8917 214.4120 0017932 059.3489 300.9479 14.63512855657818
CUTE-1.7+APD II
1 32785U 08021C   18058.51150784 +.00000232 +00000-0 +30864-4 0  9991
2 32785 097.5526 075.8983 0014191 047.1332 313.1075 14.88067869532868
DELFI C3
1 32789U 08021G   18058.74215121 +.00000914 +00000-0 +67238-4 0  9999
2 32789 097.5269 116.2653 0011121 316.3705 043.6642 15.05779616535212
SEEDS
1 32791U 08021J   18058.50965722  .00000249  00000-0  30931-4 0  9996
2 32791  97.5442  80.9950 0014087  30.0228 330.1795 14.90475998533174
YUBELEINY
1 32953U 08025A   18059.54637095  .00000035  00000-0  18231-3 0  9995
2 32953  82.4990  80.2452 0020380  87.4238 272.9174 12.43081984443274
PRISM (HITOMI)
1 33493U 09002B   18059.35638436  .00000359  00000-0  37606-4 0  9997
2 33493  98.1413 317.2127 0014801 322.0595  37.9534 14.96092801494078
KKS-1 (KISEKI)
1 33499U 09002H   18059.18790027  .00000081  00000-0  20032-4 0  9996
2 33499  98.3500 237.4384 0007986 281.0045  79.0264 14.75297992489101
SWISSCUBE
1 35932U 09051B   18058.90531704 +.00000124 +00000-0 +39132-4 0  9997
2 35932 098.5274 207.5436 0007843 177.2560 182.8682 14.56124843447497
BEESAT
1 35933U 09051C   18058.94046166 +.00000102 +00000-0 +33976-4 0  9991
2 35933 098.5315 209.0562 0005757 187.6265 172.4846 14.56232686447560
ITUPSAT 1
1 35935U 09051E   18059.00239846  .00000068  00000-0  26691-4 0  9997
2 35935  98.5427 209.3739 0008145 185.4471 174.6638 14.55413735447449
XIWANG-1 (HOPE-1)
1 36122U 09072B   18059.55336573 -.00000047  00000-0 -12852-4 0  9997
2 36122 100.0837  79.2399 0007539   8.7469 351.3775 13.16343482394352
TISAT 1
1 36799U 10035E   18058.91033978 +.00000530 +00000-0 +60074-4 0  9994
2 36799 098.0885 192.3527 0011999 201.5217 158.5497 14.90705098413673
JUGNU
1 37839U 11058B   18058.16419303  .00000324  00000-0  30753-4 0  9995
2 37839  19.9625 344.4073 0019070 114.1485  26.1807 14.12610403329796
SRMSAT
1 37841U 11058D   18058.23397257  .00000308  00000-0  24012-4 0  9992
2 37841  19.9735  30.9164 0011810   3.7414 117.3291 14.10599223329332
M-CUBED/EXP-1 PRIME
1 37855U 11061F   18059.52498042  .00001647  00000-0  92000-4 0  9997
2 37855 101.7258  66.4462 0177679  43.7870 317.7274 15.04098321345318
HORYU 2
1 38340U 12025D   18058.62459592  .00000182  00000-0  34925-4 0  9990
2 38340  98.3737  76.5432 0011307 193.5703 166.5203 14.75504251310959
STRAND 1
1 39090U 13009E   18058.91980214 +.00000026 +00000-0 +24457-4 0  9994
2 39090 098.5319 266.6552 0008098 261.0948 098.9321 14.35012425262138
SOMP
1 39134U 13015E   18059.50399293  .00001245  00000-0  68787-4 0  9995
2 39134  64.8627 118.3975 0022953 225.4765 134.4487 15.18845459268390
BEESAT 3
1 39135U 13015F   18059.21777069  .00000812  00000-0  51387-4 0  9992
2 39135  64.8690 131.2844 0028910 247.2273 112.5798 15.16422131268124
BEESAT 2
1 39136U 13015G   18058.68780130 +.00001052 +00000-0 +64420-4 0  9995
2 39136 064.8699 135.4843 0029557 247.4221 112.3777 15.15902049267609
CUBEBUG 1
1 39153U 13018D   18059.21590811  .00000191  00000-0  32058-4 0  9997
2 39153  97.9780 155.1194 0015733 301.4867  58.4807 14.80345759261464
ZACUBE
1 39417U 13066B   18058.65274011  .00000214  00000-0  33308-4 0  9996
2 39417  97.6000  93.0709 0059952 152.7034 207.7351 14.80881064230581
TRITON 1
1 39427U 13066M   18059.14762187  .00000131  00000-0  29212-4 0  9995
2 39427  97.6384  62.3249 0112777 248.4703 110.4451 14.67615762228589
GOMX 1
1 39430U 13066Q   18059.46921292  .00000204  00000-0  46412-4 0  9990
2 39430  97.6871  44.2426 0150644 314.1798  44.7103 14.59030722227298
HUMSAT D
1 39433U 13066T   18058.91058195 +.00000579 +00000-0 +62368-4 0  9998
2 39433 097.6188 119.0383 0032515 087.0267 273.4673 14.91758741230952
50 SAT
1 39436U 13066W   18059.30264390  .00077947  00000-0  91604-3 0  9998
2 39436  97.7117 186.7850 0006236 238.6646 121.4000 15.61175755236244
CUBEBUG 2
1 39440U 13066AA  18058.63023188  .00000175  00000-0  31499-4 0  9992
2 39440  97.6087  80.3378 0080387 190.2871 169.6698 14.75617193229767
FUNCUBE 1
1 39444U 13066AE  18058.63819394 +.00000253 +00000-0 +37685-4 0  9998
2 39444 097.6012 094.4429 0059211 148.6285 211.8483 14.81646810228845
UWE-3
1 39446U 13066AG  18058.77295365 +.00000196 +00000-0 +32740-4 0  9994
2 39446 097.6030 086.4660 0070594 171.3962 188.8478 14.78150338228957
SPROUT
1 39770U 14029E   18059.56635309  .00000620  00000-0  75883-4 0  9995
2 39770  97.8726 161.5688 0008800 196.1218 163.9725 14.86684581204220
UNISAT 6
1 40012U 14033C   18058.70257583 +.00000155 +00000-0 +30694-4 0  9994
2 40012 097.8248 298.9275 0058139 190.6302 169.3682 14.73768752198571
DUCHIFAT 1
1 40021U 14033M   18058.81606231  .00000304  00000-0  37275-4 0  9992
2 40021  97.9176 337.3390 0012960 172.7067 187.4341 14.90208080200668
QB50P1
1 40025U 14033R   18058.72188645  .00000269  00000-0  34877-4 0  9995
2 40025  97.9085 334.3317 0012384 178.8256 181.2992 14.88643231200509
CHUBUSAT 1
1 40300U 14070C   18059.24373789  .00000692  00000-0  33841-4 0  9995
2 40300  97.3723 139.2365 0018799 287.1881 149.9288 15.21402001183715
NUDT-PHONESAT
1 40900U 15049B   18058.77418543 +.00002095 +00000-0 +97846-4 0  9997
2 40900 097.4432 068.3152 0015033 056.5913 303.6758 15.20833151135280
ZDPS 2A
1 40901U 15049C   18059.50426028  .00000821  00000-0  45001-4 0  9998
2 40901  97.4599  67.5587 0015236  59.3242 300.9490 15.16876495135184
ZDPS 2B
1 40902U 15049D   18059.06764677  .00000826  00000-0  45467-4 0  9996
2 40902  97.4489  65.3341 0015286  58.0749 302.1969 15.16681577135102
XW-2A
1 40903U 15049E   18059.55469432  .00001845  00000-0  48144-4 0  9999
2 40903  97.3975  93.2794 0015960  65.4468 294.8440 15.40050131137086
KAITUO 1A
1 40904U 15049F   18059.50268556  .00000524  00000-0  31585-4 0  9993
2 40904  97.4589  65.1288 0016387  57.5819  93.4302 15.14896363135041
OBJECT G
1 40905U 15049G   18059.15813616  .00000415  00000-0  26458-4 0  9990
2 40905  97.4576  63.0490 0017165  51.9562 308.3216 15.13868589134924
XW-2C
1 40906U 15049H   18059.54486051  .00000628  00000-0  37032-4 0  9999
2 40906  97.4596  65.0422 0016391  50.6981 309.5701 15.15032711135043
XW-2D
1 40907U 15049J   18059.50773041  .00000688  00000-0  40110-4 0  9991
2 40907  97.4569  64.7168 0015709  49.1106 311.1484 15.15172213135040
LILACSAT 2
1 40908U 15049K   18058.92268778 +.00000333 +00000-0 +22236-4 0  9999
2 40908 097.4677 063.6395 0017348 051.1181 309.1594 15.13416422134845
XW-2F
1 40910U 15049M   18059.53912129  .00001031  00000-0  56526-4 0  9991
2 40910  97.4577  65.8673 0016380  45.4275 314.8292 15.16286899134995
XW-2B
1 40911U 15049N   18059.05906149  .00000682  00000-0  39818-4 0  9990
2 40911  97.4606  64.7717 0015650  51.0195 309.2429 15.15119831134876
